| time (UTC) | temp F | wind direction | speed knots | gust knots | rain 1hr in | rain 24hr in | rain mn in | humidity % | barometer mb |
| 20260831191534 | 100 | 150 | 1.7 | 7.8 | 0.00 | 0.00 | 0.00 | 32 | 1013.4 |
| 20260831190031 | 101 | 169 | 1.7 | 7.8 | 0.00 | 0.00 | 0.00 | 30 | 1013.4 |
| 20260831184530 | 100 | 253 | 0.0 | 3.5 | 0.00 | 0.00 | 0.00 | 33 | 1013.5 |
| 20260831183032 | 100 | 178 | 0.9 | 7.0 | 0.00 | 0.00 | 0.00 | 33 | 1013.7 |
| 20260831181526 | 100 | 155 | 1.7 | 4.3 | 0.00 | 0.00 | 0.00 | 34 | 1013.9 |
| 20260831180022 | 100 | 168 | 1.7 | 6.1 | 0.00 | 0.00 | 0.00 | 34 | 1014.0 |
| 20260831174519 | 99 | 180 | 1.7 | 7.0 | 0.00 | 0.00 | 0.00 | 35 | 1014.2 |
| 20260831173017 | 98 | 123 | 0.9 | 4.3 | 0.00 | 0.00 | 0.00 | 37 | 1014.3 |
| 20260831171516 | 97 | 265 | 0.9 | 4.3 | 0.00 | 0.00 | 0.00 | 39 | 1014.5 |
| 20260831170017 | 97 | 242 | 0.9 | 8.7 | 0.00 | 0.00 | 0.00 | 40 | 1014.7 |
| 20260831164503 | 96 | 155 | 1.7 | 7.0 | 0.00 | 0.00 | 0.00 | 41 | 1014.8 |
| 20260831163102 | 95 | 259 | 0.9 | 4.3 | 0.00 | 0.00 | 0.00 | 42 | 1015.1 |
| 20260831161555 | 95 | 153 | 0.0 | 7.0 | 0.00 | 0.00 | 0.00 | 44 | 1015.0 |
| 20260831160051 | 94 | 227 | 0.0 | 4.3 | 0.00 | 0.00 | 0.00 | 45 | 1015.1 |
| 20260831154547 | 93 | 279 | 0.9 | 6.1 | 0.00 | 0.00 | 0.00 | 46 | 1015.0 |
| 20260831153042 | 92 | 177 | 0.0 | 6.1 | 0.00 | 0.00 | 0.00 | 48 | 1014.9 |
| 20260831151539 | 91 | 125 | 0.9 | 5.2 | 0.00 | 0.00 | 0.00 | 49 | 1015.0 |
| 20260831150034 | 89 | 234 | 0.0 | 3.5 | 0.00 | 0.00 | 0.00 | 51 | 1015.0 |
| 20260831144530 | 88 | 259 | 0.0 | 2.6 | 0.00 | 0.00 | 0.00 | 52 | 1015.2 |
| 20260831143026 | 87 | 189 | 0.0 | 2.6 | 0.00 | 0.00 | 0.00 | 52 | 1015.1 |
| 20260831141521 | 86 | 213 | 0.0 | 2.6 | 0.00 | 0.00 | 0.00 | 52 | 1015.2 |
| 20260831140017 | 84 | 171 | 0.0 | 1.7 | 0.00 | 0.00 | 0.00 | 54 | 1015.2 |
| 20260831134513 | 83 | 174 | 0.9 | 2.6 | 0.00 | 0.00 | 0.00 | 54 | 1015.2 |
| 20260831133024 | 82 | 163 | 0.0 | 2.6 | 0.00 | 0.00 | 0.00 | 55 | 1015.0 |
| 20260831131506 | 80 | 174 | 0.0 | 1.7 | 0.00 | 0.00 | 0.00 | 58 | 1014.8 |
| 20260831130001 | 79 | 161 | 0.0 | 0.9 | 0.00 | 0.00 | 0.00 | 59 | 1014.5 |
| 20260831124608 | 77 | 360 | 0.0 | 0.9 | 0.00 | 0.00 | 0.00 | 60 | 1014.5 |
| 20260831123055 | 77 | 360 | 0.0 | 0.9 | 0.00 | 0.00 | 0.00 | 60 | 1014.1 |
| 20260831121551 | 78 | 360 | 0.0 | 1.7 | 0.00 | 0.00 | 0.00 | 59 | 1013.9 |
| 20260831120054 | 78 | 360 | 0.0 | 2.6 | 0.00 | 0.00 | 0.00 | 58 | 1013.7 |
| 20260831120018 | 78 | 360 | 0.0 | 2.6 | 0.00 | 0.00 | 0.00 | 58 | 1013.7 |
| 20260831114547 | 78 | 360 | 0.0 | 2.6 | 0.00 | 0.00 | 0.00 | 57 | 1013.3 |
| 20260831113047 | 78 | 360 | 0.0 | 2.6 | 0.00 | 0.00 | 0.00 | 57 | 1013.3 |
| 20260831111543 | 78 | 360 | 0.0 | 2.6 | 0.00 | 0.00 | 0.00 | 57 | 1013.1 |
| 20260831110040 | 78 | 360 | 0.0 | 1.7 | 0.00 | 0.00 | 0.00 | 56 | 1013.0 |
| 20260831104548 | 79 | 360 | 0.0 | 3.5 | 0.00 | 0.00 | 0.00 | 55 | 1012.9 |
| 20260831103036 | 79 | 360 | 0.0 | 2.6 | 0.00 | 0.00 | 0.00 | 55 | 1012.8 |
| 20260831101536 | 79 | 360 | 0.0 | 3.5 | 0.00 | 0.00 | 0.00 | 55 | 1012.8 |
| 20260831100040 | 79 | 360 | 0.0 | 2.6 | 0.00 | 0.00 | 0.00 | 55 | 1012.5 |
| 20260831094539 | 79 | 360 | 0.0 | 2.6 | 0.00 | 0.00 | 0.00 | 55 | 1012.5 |
| 20260831093034 | 80 | 360 | 0.0 | 2.6 | 0.00 | 0.00 | 0.00 | 54 | 1012.5 |
| 20260831091528 | 80 | 360 | 0.0 | 2.6 | 0.00 | 0.00 | 0.00 | 53 | 1012.3 |
| 20260831090025 | 81 | 360 | 0.0 | 2.6 | 0.00 | 0.00 | 0.00 | 52 | 1012.3 |
| 20260831084536 | 81 | 360 | 0.0 | 3.5 | 0.00 | 0.00 | 0.00 | 51 | 1012.1 |
| 20260831083036 | 82 | 360 | 0.0 | 4.3 | 0.00 | 0.00 | 0.00 | 50 | 1012.1 |
| 20260831081519 | 83 | 360 | 0.9 | 5.2 | 0.00 | 0.00 | 0.00 | 49 | 1012.2 |
| 20260831080026 | 83 | 360 | 0.9 | 7.8 | 0.00 | 0.00 | 0.00 | 49 | 1012.2 |
| 20260831074517 | 83 | 360 | 0.9 | 4.3 | 0.00 | 0.00 | 0.00 | 48 | 1012.0 |
| 20260831073019 | 83 | 360 | 0.9 | 7.0 | 0.00 | 0.00 | 0.00 | 48 | 1012.0 |
| 20260831071513 | 83 | 360 | 0.9 | 7.0 | 0.00 | 0.00 | 0.00 | 47 | 1012.0 |
| 20260831070016 | 84 | 360 | 0.9 | 4.3 | 0.00 | 0.00 | 0.00 | 47 | 1012.0 |
| 20260831064510 | 84 | 360 | 0.9 | 5.2 | 0.00 | 0.00 | 0.00 | 46 | 1012.1 |
| 20260831063007 | 85 | 360 | 0.0 | 4.3 | 0.00 | 0.00 | 0.00 | 45 | 1012.1 |
| 20260831061506 | 85 | 360 | 0.9 | 5.2 | 0.00 | 0.00 | 0.00 | 44 | 1012.1 |
| 20260831060004 | 86 | 360 | 0.9 | 7.8 | 0.00 | 0.00 | 0.00 | 44 | 1012.1 |
| 20260831054502 | 86 | 360 | 0.9 | 7.0 | 0.00 | 0.00 | 0.00 | 44 | 1011.9 |
| 20260831053100 | 86 | 360 | 0.9 | 7.0 | 0.00 | 0.00 | 0.00 | 44 | 1011.9 |
| 20260831051559 | 86 | 360 | 1.7 | 7.0 | 0.00 | 0.00 | 0.00 | 44 | 1011.9 |
| 20260831050057 | 86 | 360 | 0.9 | 5.2 | 0.00 | 0.00 | 0.00 | 44 | 1011.9 |
| 20260831044559 | 87 | 360 | 1.7 | 7.8 | 0.00 | 0.00 | 0.00 | 44 | 1011.8 |
| 20260831043054 | 87 | 360 | 1.7 | 5.2 | 0.00 | 0.00 | 0.00 | 43 | 1011.8 |
| 20260831041602 | 88 | 360 | 1.7 | 5.2 | 0.00 | 0.00 | 0.00 | 43 | 1011.8 |
| 20260831040055 | 88 | 360 | 2.6 | 6.1 | 0.00 | 0.00 | 0.00 | 43 | 1011.8 |
| 20260831034554 | 88 | 196 | 1.7 | 7.0 | 0.00 | 0.00 | 0.00 | 42 | 1011.8 |
| 20260831033053 | 89 | 144 | 0.9 | 4.3 | 0.00 | 0.00 | 0.00 | 41 | 1011.6 |
| 20260831031552 | 90 | 206 | 2.6 | 7.0 | 0.00 | 0.00 | 0.00 | 40 | 1011.5 |
| 20260831030101 | 90 | 192 | 0.9 | 5.2 | 0.00 | 0.00 | 0.00 | 39 | 1011.2 |
| 20260831024551 | 91 | 360 | 0.9 | 7.8 | 0.00 | 0.00 | 0.00 | 39 | 1010.9 |
| 20260831023050 | 91 | 360 | 1.7 | 7.0 | 0.00 | 0.00 | 0.00 | 38 | 1010.7 |
| 20260831021553 | 92 | 360 | 1.7 | 7.8 | 0.00 | 0.00 | 0.00 | 38 | 1010.6 |
| 20260831020050 | 92 | 152 | 0.9 | 6.1 | 0.00 | 0.00 | 0.00 | 38 | 1010.3 |
| 20260831014602 | 93 | 146 | 1.7 | 7.8 | 0.00 | 0.00 | 0.00 | 37 | 1010.1 |
| 20260831013051 | 94 | 80 | 0.9 | 7.8 | 0.00 | 0.00 | 0.00 | 37 | 1010.1 |
| 20260831011607 | 95 | 174 | 1.7 | 6.1 | 0.00 | 0.00 | 0.00 | 36 | 1009.9 |
| 20260831010047 | 95 | 150 | 1.7 | 5.2 | 0.00 | 0.00 | 0.00 | 34 | 1009.9 |
| 20260831004547 | 96 | 200 | 0.0 | 6.1 | 0.00 | 0.00 | 0.00 | 33 | 1009.7 |
| 20260831003051 | 97 | 161 | 0.9 | 8.7 | 0.00 | 0.00 | 0.00 | 32 | 1009.6 |
| 20260831001600 | 98 | 204 | 0.0 | 4.3 | 0.00 | 0.00 | 0.00 | 32 | 1009.7 |
| 20260831000048 | 99 | 118 | 1.7 | 7.0 | 0.00 | 0.00 | 0.00 | 31 | 1009.7 |
| 20260830234545 | 100 | 132 | 0.9 | 7.0 | 0.00 | 0.00 | 0.00 | 30 | 1009.7 |
| 20260830233045 | 100 | 215 | 1.7 | 8.7 | 0.00 | 0.00 | 0.00 | 30 | 1009.8 |
| 20260830231543 | 101 | 186 | 0.9 | 6.1 | 0.00 | 0.00 | 0.00 | 30 | 1009.8 |
| 20260830230042 | 101 | 198 | 1.7 | 7.0 | 0.00 | 0.00 | 0.00 | 29 | 1009.7 |
| 20260830224600 | 101 | 176 | 1.7 | 5.2 | 0.00 | 0.00 | 0.00 | 29 | 1009.6 |
| 20260830223042 | 102 | 198 | 1.7 | 7.8 | 0.00 | 0.00 | 0.00 | 29 | 1009.7 |
| 20260830221540 | 103 | 183 | 1.7 | 7.0 | 0.00 | 0.00 | 0.00 | 28 | 1009.6 |
| 20260830220050 | 103 | 177 | 1.7 | 8.7 | 0.00 | 0.00 | 0.00 | 28 | 1009.7 |
| 20260830214544 | 103 | 176 | 1.7 | 6.1 | 0.00 | 0.00 | 0.00 | 28 | 1009.9 |
| 20260830213035 | 103 | 219 | 1.7 | 7.8 | 0.00 | 0.00 | 0.00 | 30 | 1009.9 |
| 20260830211537 | 103 | 166 | 1.7 | 7.8 | 0.00 | 0.00 | 0.00 | 29 | 1010.2 |
| 20260830210035 | 103 | 153 | 1.7 | 6.1 | 0.00 | 0.00 | 0.00 | 28 | 1010.4 |
| 20260830204532 | 103 | 177 | 1.7 | 6.1 | 0.00 | 0.00 | 0.00 | 29 | 1010.6 |
| 20260830203026 | 103 | 131 | 0.9 | 8.7 | 0.00 | 0.00 | 0.00 | 28 | 1010.7 |
| 20260830201521 | 103 | 227 | 1.7 | 10.4 | 0.00 | 0.00 | 0.00 | 29 | 1011.0 |
| 20260830200019 | 102 | 242 | 1.7 | 7.8 | 0.00 | 0.00 | 0.00 | 29 | 1011.0 |
| 20260830194522 | 103 | 179 | 1.7 | 4.3 | 0.00 | 0.00 | 0.00 | 29 | 1011.3 |
| 20260830193015 | 103 | 186 | 1.7 | 7.0 | 0.00 | 0.00 | 0.00 | 29 | 1011.4 |